Wind_Speed
22 19 17 16 14 12 10 11 12 12 11 10 9 7 8 11 15 18 21 22 24 25 27 28 38 45 50 50 50 46 53 51 51 45 45 42 42 44 40 38 39 41 39 40 37 37 39 39 40
21 19 18 16 15 13 11 10 11 11 10 9 9 8 8 10 14 17 20 21 21 22 23 26 32 37 38 40 43 44 47 49 49 50 47 42 45 49 45 40 43 40 38 40 47 46 43 42 41
21 18 17 15 15 12 13 10 11 12 8 9 11 9 8 9 12 16 19 19 20 20 21 24 30 31 31 31 33 36 40 45 50 52 48 44 48 50 46 46 42 43 44 44 45 46 51 50 48
20 20 17 16 15 13 14 13 9 12 11 10 11 11 9 9 11 14 18 21 20 20 20 21 25 28 30 29 29 31 36 39 41 42 45 47 47 48 46 47 49 47 49 51 53 53 54 54 54
19 20 19 17 15 14 14 16 13 12 12 12 12 12 11 10 11 11 13 16 20 20 20 19 21 23 27 27 26 27 31 32 36 40 42 44 44 46 49 51 51 51 50 52 54 55 55 56 56
20 20 20 17 17 15 15 17 14 14 14 13 13 13 11 12 10 12 12 14 15 18 18 19 19 19 21 25 26 25 26 30 35 37 40 42 44 45 47 48 48 50 50 50 52 53 54 56 56
21 20 18 19 18 17 15 14 19 12 15 14 14 13 14 13 13 12 14 13 13 15 17 18 19 20 20 21 23 26 27 27 28 32 35 38 42 43 44 45 45 46 48 50 50 50 50 52 54
22 22 18 19 18 20 19 15 16 17 13 15 15 16 16 15 15 15 14 14 15 15 16 17 19 20 21 21 22 23 25 27 28 31 33 35 37 38 38 40 40 41 43 45 45 47 49 51 53
23 23 22 20 19 19 22 18 16 19 15 16 17 16 17 18 18 18 17 17 16 17 17 17 19 20 21 23 24 25 26 27 29 30 31 32 34 36 38 39 39 40 41 41 43 44 45 47 48
23 23 24 23 23 20 22 22 20 15 20 17 18 18 19 20 20 20 20 20 20 19 20 20 19 20 21 21 23 24 25 25 26 27 29 31 32 34 36 38 39 39 40 40 41 42 44 45 46
24 23 23 25 24 23 21 23 22 18 19 22 20 20 21 21 21 21 22 21 22 23 24 24 24 23 23 23 23 24 25 26 27 28 30 32 33 35 36 37 38 40 41 41 42 42 42 43 45
25 24 24 25 26 25 25 26 25 21 21 24 24 22 23 24 23 22 22 22 25 25 26 27 28 27 27 27 27 28 29 30 32 34 35 36 36 37 38 39 40 41 42 41 41 42 44 46 47
28 27 26 25 26 26 26 26 24 21 26 24 25 26 25 26 26 25 23 23 25 27 27 29 29 28 28 29 29 31 31 31 32 32 33 34 35 37 37 38 39 40 40 41 42 42 42 43 45
30 31 29 26 27 28 27 28 25 25 26 27 26 27 28 28 27 28 26 25 26 27 27 28 29 29 29 29 29 30 31 32 32 33 34 35 35 36 38 37 37 37 37 37 36 36 36 38 40
33 34 32 28 30 30 28 30 24 27 26 29 28 28 29 31 30 30 29 27 28 28 29 29 30 30 30 30 31 32 33 34 34 34 34 34 32 32 33 34 34 33 35 36 37 40 42 42 43
38 35 32 33 34 31 30 34 27 27 28 29 30 30 31 30 31 31 33 31 30 30 30 31 32 33 33 33 34 35 35 36 36 35 34 34 33 35 36 38 41 42 42 43 44 48 49 55 49
40 37 38 38 36 30 30 35 28 29 29 33 33 32 31 32 31 32 34 35 34 32 33 33 34 35 36 36 37 38 38 39 40 40 41 42 42 43 45 47 48 49 50 52 54 55 56 54 55
37 40 40 40 39 30 30 35 32 30 31 35 36 34 33 33 33 34 35 35 35 35 36 36 37 38 39 40 41 41 42 42 41 43 43 45 46 48 50 52 53 54 54 54 53 53 54 56 58
43 42 41 46 41 32 32 31 36 32 34 35 37 38 38 35 32 35 35 34 36 37 38 40 41 41 42 43 44 44 44 45 44 43 44 47 49 51 52 52 52 53 51 52 54 55 56 57 60
45 44 46 50 46 37 37 32 35 37 37 39 40 42 40 36 35 35 35 36 37 39 41 43 43 44 44 45 47 48 47 45 45 46 46 48 50 51 52 54 53 53 54 55 56 58 60 62 63
50 49 53 52 50 41 37 30 34 41 42 44 43 43 40 38 37 35 35 38 40 43 44 44 44 45 46 47 49 50 50 50 50 51 52 53 54 55 56 56 56 56 57 58 60 62 64 66 66
54 57 56 56 54 44 39 27 31 44 47 51 50 41 41 40 40 38 38 39 41 42 41 44 44 46 47 48 50 51 53 54 55 55 56 57 58 59 59 59 59 59 61 63 65 66 66 68 70
60 64 63 61 57 39 36 34 29 42 51 57 54 46 42 42 42 43 43 43 42 44 44 45 46 47 49 50 52 54 55 56 56 57 60 60 61 62 61 61 62 64 65 68 69 69 71 73 75
65 66 67 66 61 39 39 34 21 41 51 58 56 47 44 44 45 44 43 42 42 43 47 50 50 50 51 53 55 56 58 60 62 64 64 64 62 60 62 63 64 66 68 70 72 73 75 75 75
66 69 72 71 64 47 43 27 24 39 45 53 57 52 49 48 45 43 44 46 45 45 47 50 52 54 55 57 58 61 62 64 64 64 63 62 61 63 64 66 66 69 71 72 73 76 77 80 83
77 75 72 73 69 57 39 27 36 46 47 49 53 56 56 51 49 48 49 48 48 47 47 49 50 52 53 55 57 59 60 60 60 62 62 63 64 66 67 68 69 71 72 75 77 79 82 85 87
77 75 75 80 73 65 48 41 41 46 49 47 56 58 60 60 59 57 55 53 52 52 52 51 50 51 51 52 53 55 57 60 62 64 65 66 67 68 69 70 71 75 77 79 81 85 88 88 89
78 79 80 79 76 72 55 48 49 53 54 54 56 58 64 66 63 60 58 56 54 55 56 56 57 57 56 57 59 61 62 63 64 65 67 68 69 70 71 72 76 79 82 87 89 90 91 91 92
88 87 85 84 82 76 67 52 55 55 54 57 63 63 64 66 63 59 58 58 58 59 58 57 58 60 61 61 61 63 64 66 68 69 69 71 72 72 73 75 80 86 89 90 92 93 93 93 95
88 86 87 86 81 79 75 54 56 59 57 59 62 65 66 63 61 61 61 62 63 64 62 62 63 63 63 64 66 66 68 69 71 72 73 74 75 74 76 81 84 88 91 93 95 95 95 98 99
Wind_Direction
280 284 287 289 289 286 280 273 271 269 264 265 267 260 241 233 230 225 221 222 228 232 233 226 218 224 226 229 237 234 235 240 243 241 244 252 250 252 244 249 257 264 268 268 260 273 274 268 265
278 280 284 286 286 290 283 278 275 266 268 257 257 256 249 229 222 222 223 222 227 230 236 232 223 227 234 236 242 242 236 240 240 244 248 249 249 246 249 253 259 258 257 262 274 275 270 272 270
273 274 279 282 287 282 284 275 277 278 281 277 272 255 251 241 223 223 222 229 233 234 234 232 227 227 233 242 243 242 238 238 237 241 247 238 243 257 259 259 257 257 260 260 260 267 276 277 275
269 273 277 281 288 290 285 283 264 280 284 275 278 271 254 253 236 226 226 230 234 236 232 231 229 231 236 241 241 239 239 241 239 242 242 245 246 251 259 257 256 258 260 259 259 260 263 265 268
272 277 279 281 282 286 288 286 285 270 268 271 272 276 266 255 248 241 240 234 234 235 234 234 234 234 237 240 243 242 240 242 240 243 244 250 252 256 259 261 264 263 265 264 264 263 263 260 264
273 275 281 283 286 288 284 279 276 273 274 270 273 272 271 264 256 254 245 238 242 240 240 239 236 236 239 241 242 242 240 239 242 246 250 253 255 257 257 259 263 266 265 268 269 269 270 267 269
273 273 276 285 286 284 284 273 280 269 269 274 271 270 268 269 259 258 253 255 243 243 248 247 241 239 242 244 246 245 243 242 243 245 248 251 253 255 257 258 262 263 264 266 267 269 270 268 268
270 271 270 274 282 288 291 284 276 280 273 272 267 268 268 267 267 265 263 260 254 250 250 251 253 253 252 246 245 247 248 247 248 251 254 255 256 257 259 259 262 264 267 268 268 268 268 268 268
269 272 275 271 270 276 282 282 278 282 280 274 272 268 268 265 258 258 258 259 262 259 254 252 250 249 250 251 253 252 250 250 252 255 259 261 261 263 265 266 267 269 272 274 274 274 274 274 273
272 276 280 280 279 276 279 285 283 277 282 275 277 274 269 266 262 262 256 254 257 256 254 255 252 250 250 249 251 254 256 260 263 264 266 268 269 270 272 274 275 276 276 277 275 276 276 277 278
275 275 279 282 281 282 281 282 284 284 275 277 276 276 274 269 267 263 265 260 255 254 253 253 252 253 257 259 260 262 263 263 265 267 265 266 268 270 271 272 272 272 273 275 278 279 279 278 277
278 277 277 278 280 278 275 277 279 283 275 274 277 275 273 274 271 266 262 263 264 261 259 258 255 256 257 258 260 262 263 265 267 268 270 271 271 271 271 272 273 275 276 276 277 278 280 281 281
271 274 276 278 278 275 275 276 281 282 275 271 275 278 275 275 274 274 269 267 265 267 266 264 261 262 263 262 262 262 263 263 265 268 271 274 276 276 276 277 278 279 281 281 281 280 279 280 280
267 271 273 277 275 275 277 277 283 281 278 278 273 274 279 278 276 275 274 273 272 271 271 269 269 268 268 268 269 271 273 275 277 278 279 279 279 277 276 275 274 274 275 274 275 277 275 277 276
262 266 271 275 274 274 278 274 276 279 283 281 281 276 273 275 277 277 278 279 276 276 277 276 275 276 276 278 280 280 280 279 279 279 279 277 276 273 274 273 270 271 269 268 270 271 275 280 274
261 264 270 273 270 275 276 277 277 277 278 278 277 279 279 274 275 277 277 277 276 275 276 279 280 280 280 280 279 280 280 279 277 274 270 267 265 264 267 267 268 268 271 272 276 274 276 274 282
258 265 266 267 266 268 274 277 276 274 276 275 275 278 280 280 273 272 273 276 277 277 275 275 276 278 280 281 280 279 280 278 277 278 276 271 269 268 270 272 273 274 277 279 282 285 289 291 292
262 259 261 264 263 263 268 274 274 276 276 275 278 280 277 275 276 274 274 276 278 278 277 277 276 277 279 279 279 280 281 283 280 278 274 272 272 272 271 273 275 276 280 285 288 291 292 294 296
258 257 257 256 259 261 263 270 275 273 273 275 276 276 274 276 278 276 278 277 278 277 277 277 276 276 275 275 277 280 283 284 282 282 278 278 277 278 280 280 281 285 287 289 291 294 296 296 296
256 251 256 257 258 257 263 265 272 276 273 273 271 272 276 279 279 279 276 275 275 275 274 275 276 274 274 273 275 279 283 284 283 284 283 283 283 283 283 286 290 290 290 291 292 295 297 297 296
252 253 253 256 259 259 258 265 276 273 273 273 269 275 279 281 279 277 278 277 276 275 277 275 272 272 274 275 275 279 282 282 283 285 286 286 286 287 288 290 289 289 291 292 293 293 294 294 295
254 255 254 257 257 259 260 256 265 266 271 272 273 274 277 280 282 282 279 275 276 278 277 275 275 273 274 275 277 278 280 282 285 286 285 285 285 286 287 288 290 290 289 289 291 290 291 293 295
254 255 256 257 259 257 266 256 248 262 267 272 276 278 278 276 277 277 277 279 277 278 279 278 278 275 274 275 275 277 280 281 282 283 284 285 286 286 288 289 287 289 290 290 291 291 293 297 298
256 256 257 257 259 262 258 263 256 254 264 272 277 279 280 280 279 281 282 281 280 279 276 276 276 275 275 275 276 277 279 280 280 283 285 287 289 286 285 288 289 289 291 291 292 294 298 299 294
253 253 254 257 261 258 256 264 266 269 269 274 282 281 278 277 279 280 280 279 279 277 275 274 274 273 273 273 275 276 278 280 283 284 285 284 285 286 287 289 290 290 291 293 295 294 293 293 292
251 254 257 258 259 264 266 269 264 269 267 273 278 281 281 281 281 279 278 280 281 280 276 276 275 274 274 274 275 276 279 281 282 283 285 285 285 287 289 290 291 292 293 291 291 292 292 293 294
251 256 259 262 264 265 266 265 261 267 266 266 271 275 279 281 280 282 284 283 282 281 281 280 278 276 275 277 278 279 281 283 285 286 287 287 288 289 290 292 291 291 290 290 292 293 294 293 295
256 256 258 262 265 266 267 267 266 263 268 272 273 276 279 282 284 285 284 283 283 284 283 282 282 282 281 282 282 282 283 285 287 288 288 287 287 289 290 290 290 289 289 291 292 293 295 295 295
257 259 262 265 267 270 269 265 260 263 263 271 277 276 276 278 281 283 283 282 283 283 285 286 287 285 282 281 282 283 284 284 285 286 287 288 288 289 290 289 289 290 290 291 293 295 294 295 297
260 263 266 268 268 266 267 265 265 268 268 269 270 273 275 275 277 279 279 282 284 286 286 286 287 285 282 283 284 285 286 287 289 290 290 289 288 288 287 288 289 288 289 292 294 293 294 296 299
Height
10824 10821 10821 10820 10819 10819 10818 10818 10816 10815 10815 10815 10815 10815 10815 10815 10815 10818 10819 10822 10824 10825 10826 10828 10829 10829 10831 10833 10832 10836 10835 10838 10840 10844 10845 10847 10847 10848 10852 10854 10855 10856 10855 10855 10857 10858 10857 10858 10860
10821 10819 10819 10818 10817 10816 10816 10816 10815 10814 10813 10814 10814 10813 10814 10813 10814 10815 10817 10819 10821 10822 10823 10825 10826 10826 10829 10830 10829 10832 10834 10835 10836 10839 10841 10844 10841 10844 10846 10849 10851 10852 10852 10853 10851 10850 10852 10853 10853
10818 10817 10817 10816 10815 10815 10813 10815 10814 10811 10812 10811 10812 10812 10812 10812 10813 10813 10815 10816 10817 10819 10820 10822 10823 10825 10825 10826 10826 10827 10828 10829 10831 10833 10836 10839 10840 10839 10842 10844 10844 10845 10846 10846 10847 10846 10845 10844 10844
10815 10814 10815 10814 10813 10812 10811 10811 10813 10810 10809 10810 10810 10810 10810 10811 10811 10812 10812 10813 10814 10815 10817 10818 10819 10821 10821 10822 10822 10822 10823 10825 10827 10829 10831 10833 10835 10836 10837 10836 10837 10838 10838 10838 10838 10838 10838 10837 10837
10812 10811 10812 10812 10812 10810 10810 10808 10809 10810 10809 10808 10808 10808 10808 10809 10810 10811 10811 10811 10812 10812 10813 10814 10815 10816 10817 10818 10818 10819 10820 10822 10823 10825 10827 10828 10829 10829 10829 10830 10831 10831 10831 10831 10831 10831 10831 10831 10832
10810 10809 10808 10810 10808 10808 10809 10807 10808 10807 10806 10807 10807 10807 10807 10807 10809 10809 10809 10810 10810 10811 10811 10812 10812 10813 10813 10814 10814 10815 10816 10818 10819 10820 10822 10822 10823 10824 10824 10825 10825 10825 10825 10825 10824 10824 10824 10824 10824
10807 10806 10806 10805 10805 10805 10806 10807 10803 10806 10805 10805 10805 10805 10805 10806 10807 10807 10807 10808 10808 10809 10809 10809 10810 10810 10810 10811 10812 10813 10814 10814 10814 10815 10816 10815 10815 10817 10817 10818 10818 10818 10817 10817 10816 10816 10815 10815 10815
10803 10803 10804 10803 10802 10800 10800 10803 10802 10802 10804 10803 10803 10803 10803 10805 10804 10805 10806 10806 10807 10807 10807 10807 10807 10808 10808 10808 10809 10809 10810 10810 10811 10811 10811 10811 10811 10812 10812 10811 10811 10810 10810 10810 10809 10808 10807 10806 10806
10799 10798 10798 10800 10801 10800 10798 10799 10800 10799 10800 10800 10799 10801 10801 10802 10802 10803 10803 10803 10804 10804 10804 10805 10805 10805 10805 10805 10805 10806 10806 10806 10806 10807 10807 10806 10806 10806 10805 10806 10806 10805 10804 10804 10803 10801 10801 10800 10799
10795 10795 10793 10794 10795 10798 10796 10794 10795 10798 10795 10796 10796 10798 10798 10798 10799 10800 10802 10802 10801 10801 10801 10802 10802 10802 10802 10803 10802 10802 10802 10801 10802 10802 10802 10801 10800 10800 10799 10798 10798 10798 10796 10796 10795 10794 10793 10792 10790
10791 10792 10791 10790 10791 10792 10792 10790 10791 10794 10794 10792 10793 10793 10794 10795 10795 10796 10797 10798 10799 10798 10798 10798 10799 10799 10799 10800 10800 10799 10799 10798 10798 10798 10798 10797 10796 10795 10794 10792 10791 10790 10789 10789 10787 10787 10786 10785 10783
10786 10787 10787 10786 10786 10788 10788 10787 10787 10789 10789 10788 10789 10790 10790 10789 10790 10792 10793 10794 10793 10794 10794 10794 10795 10796 10796 10797 10796 10796 10795 10795 10794 10792 10791 10790 10789 10788 10787 10785 10784 10783 10782 10783 10782 10780 10777 10775 10774
10781 10782 10782 10783 10782 10782 10783 10783 10784 10786 10783 10784 10784 10784 10785 10785 10786 10786 10788 10789 10789 10789 10789 10789 10790 10790 10791 10791 10791 10790 10790 10789 10788 10787 10786 10784 10783 10782 10780 10779 10777 10775 10774 10773 10772 10771 10770 10767 10765
10776 10776 10777 10778 10778 10777 10778 10777 10779 10778 10778 10778 10779 10779 10778 10778 10779 10780 10782 10783 10783 10783 10784 10785 10785 10785 10785 10784 10784 10784 10782 10782 10781 10780 10778 10776 10775 10774 10772 10771 10769 10767 10767 10765 10763 10762 10761 10759 10757
10771 10771 10772 10773 10772 10772 10773 10771 10775 10773 10774 10773 10772 10774 10774 10773 10772 10773 10775 10777 10777 10778 10778 10779 10779 10779 10779 10778 10777 10777 10776 10774 10773 10772 10770 10769 10768 10766 10764 10762 10760 10759 10758 10756 10754 10752 10750 10748 10746
10764 10766 10766 10766 10766 10767 10767 10764 10769 10768 10768 10768 10767 10767 10767 10768 10767 10768 10767 10769 10771 10772 10773 10773 10773 10772 10772 10771 10771 10770 10769 10767 10766 10764 10763 10762 10761 10759 10758 10755 10752 10750 10748 10746 10744 10741 10740 10737 10733
10756 10761 10759 10758 10760 10762 10762 10757 10763 10762 10762 10759 10759 10761 10761 10761 10762 10762 10762 10762 10764 10766 10767 10767 10767 10767 10766 10765 10764 10764 10763 10762 10760 10759 10757 10755 10754 10752 10750 10747 10744 10742 10739 10737 10735 10731 10729 10725 10721
10752 10751 10750 10749 10751 10756 10756 10752 10755 10756 10755 10752 10753 10754 10754 10754 10755 10756 10756 10757 10757 10759 10759 10760 10760 10760 10759 10758 10757 10756 10755 10755 10754 10753 10750 10748 10747 10744 10742 10738 10736 10734 10731 10728 10725 10721 10718 10714 10709
10740 10743 10742 10737 10744 10751 10750 10749 10747 10750 10747 10746 10746 10746 10746 10748 10749 10748 10750 10751 10751 10752 10752 10752 10752 10753 10752 10751 10750 10749 10749 10747 10746 10746 10744 10741 10739 10736 10733 10730 10728 10725 10721 10717 10712 10708 10705 10701 10697
10732 10732 10732 10729 10735 10745 10743 10746 10743 10742 10741 10738 10737 10737 10740 10742 10743 10743 10744 10744 10744 10744 10744 10744 10744 10744 10744 10743 10742 10741 10740 10739 10737 10736 10735 10732 10729 10726 10723 10719 10716 10712 10708 10704 10700 10695 10691 10688 10684
10719 10723 10720 10723 10726 10736 10739 10744 10739 10733 10732 10731 10728 10729 10733 10734 10735 10736 10737 10737 10736 10735 10735 10735 10734 10734 10734 10734 10732 10731 10730 10728 10726 10724 10722 10720 10716 10713 10710 10707 10703 10699 10695 10691 10687 10683 10678 10673 10668
10710 10707 10710 10712 10716 10727 10733 10743 10737 10727 10723 10719 10717 10725 10725 10726 10727 10728 10729 10728 10728 10727 10726 10724 10724 10724 10724 10724 10723 10722 10719 10717 10714 10712 10709 10706 10704 10701 10697 10694 10690 10687 10683 10678 10673 10668 10663 10658 10653
10698 10694 10696 10700 10706 10722 10729 10728 10735 10723 10714 10706 10710 10715 10718 10720 10720 10719 10719 10720 10720 10719 10717 10715 10715 10714 10714 10714 10713 10710 10708 10706 10703 10701 10697 10694 10691 10688 10685 10681 10677 10673 10667 10662 10656 10651 10646 10641 10635
10681 10683 10682 10686 10695 10717 10719 10721 10732 10718 10708 10698 10700 10708 10709 10709 10709 10710 10711 10711 10711 10710 10708 10706 10704 10704 10703 10702 10701 10699 10697 10694 10691 10688 10685 10682 10679 10675 10671 10668 10663 10658 10652 10647 10641 10635 10629 10621 10616
10665 10664 10665 10672 10683 10703 10707 10718 10722 10707 10702 10694 10689 10693 10696 10697 10700 10701 10700 10700 10701 10700 10697 10695 10694 10693 10691 10690 10689 10686 10684 10681 10678 10675 10671 10668 10664 10661 10657 10653 10648 10643 10638 10632 10627 10621 10616 10610 10603
10643 10648 10657 10660 10667 10683 10699 10710 10706 10696 10693 10691 10684 10677 10678 10685 10688 10689 10689 10688 10688 10687 10686 10684 10683 10681 10679 10677 10675 10672 10670 10667 10664 10660 10657 10653 10650 10646 10642 10637 10632 10626 10621 10616 10610 10605 10598 10591 10584
10641 10644 10646 10641 10656 10667 10687 10696 10696 10689 10682 10685 10677 10671 10666 10667 10672 10677 10678 10677 10677 10676 10674 10672 10671 10668 10666 10664 10662 10659 10656 10653 10650 10646 10642 10638 10634 10630 10625 10620 10615 10609 10603 10597 10592 10586 10579 10572 10564
10628 10630 10629 10632 10640 10649 10676 10681 10681 10676 10674 10672 10668 10666 10658 10657 10660 10663 10665 10665 10663 10662 10661 10659 10657 10655 10652 10650 10647 10645 10642 10638 10635 10630 10626 10622 10618 10613 10608 10603 10598 10591 10585 10579 10573 10566 10560 10552 10544
10609 10614 10619 10620 10628 10637 10653 10667 10662 10663 10665 10662 10653 10651 10648 10647 10649 10651 10651 10650 10650 10648 10647 10646 10644 10642 10640 10637 10634 10631 10627 10623 10619 10614 10610 10606 10602 10597 10592 10585 10579 10572 10565 10558 10552 10545 10538 10529 10522
10599 10605 10606 10606 10613 10613 10623 10656 10649 10647 10648 10645 10642 10636 10635 10636 10635 10635 10636 10636 10636 10634 10633 10631 10629 10627 10624 10622 10619 10616 10612 10607 10602 10598 10594 10589 10584 10579 10574 10567 10560 10552 10545 10538 10530 10523 10514 10506 10497